Dewpoint
62 63 63 64 65 65 64 64 64 64 64 64 64 63 63 63 62 62 62 62 62 61 62 60 60 59 58 58 57 56 55 54 53 51 51 54 48 48 53 51 49 44 44 45 40 39 38 34 32 32 35 42 39 40 40 41 42 43 45 47 45 39 42
62 63 64 64 64 64 63 62 63 63 63 63 63 63 62 62 62 61 61 60 60 61 62 60 59 59 59 58 57 56 55 55 54 53 52 53 50 49 50 47 45 44 44 44 43 42 42 36 32 34 35 35 39 41 43 43 43 45 47 46 49 43 46
63 63 63 63 63 63 62 61 61 61 61 61 61 61 61 61 61 61 60 59 59 60 60 58 57 57 57 58 57 56 55 55 54 55 53 54 52 51 51 49 47 45 43 42 41 40 39 39 34 29 35 33 34 41 45 45 46 46 43 41 37 33 38
62 63 63 63 62 62 62 61 60 61 60 60 60 60 60 60 60 60 59 58 58 60 58 57 57 57 56 57 57 56 56 55 54 54 54 54 53 52 50 49 48 44 44 42 39 41 41 38 37 34 35 30 30 32 40 37 43 34 34 37 37 37 39
63 63 63 62 62 62 61 60 60 59 59 59 59 58 58 58 59 59 59 57 58 57 56 56 56 55 54 54 55 56 56 55 54 55 53 52 52 51 49 49 50 48 47 46 40 40 38 39 38 35 31 37 37 36 37 36 31 31 31 32 33 36 39
63 63 63 63 62 62 61 60 59 59 58 58 58 58 57 56 58 57 56 56 56 56 55 54 53 53 52 53 53 54 54 54 53 53 52 52 51 50 48 47 48 47 47 45 44 42 41 42 39 35 35 36 39 38 34 34 32 32 33 31 32 35 37
63 63 63 63 62 62 61 61 60 59 59 59 58 58 57 55 56 57 56 55 55 54 54 53 52 52 51 51 52 52 52 52 52 52 52 51 50 50 48 46 46 46 47 46 45 43 41 40 38 37 39 39 40 35 35 33 31 37 32 32 34 37 38
63 63 63 63 62 62 61 61 60 60 59 59 58 58 56 55 55 55 55 54 53 53 53 53 52 51 52 51 50 50 49 48 49 49 48 48 47 46 46 47 46 45 45 45 45 43 42 40 39 39 36 35 36 38 37 31 36 32 32 31 34 36 39
63 63 63 63 62 62 62 61 60 59 59 58 57 57 55 54 54 54 54 52 52 52 52 52 51 50 50 49 49 48 48 48 47 47 46 46 46 45 45 45 45 43 44 44 44 44 43 42 41 41 38 35 34 31 36 33 37 33 33 33 34 36 37
63 63 63 62 62 62 62 61 60 59 58 57 57 56 54 53 53 53 52 51 51 52 52 52 51 50 49 50 48 47 47 47 47 45 46 45 45 44 44 44 44 43 43 45 44 44 44 44 42 41 39 37 37 33 30 31 35 37 34 35 35 32 38
63 63 63 62 62 62 61 60 59 58 57 57 56 55 53 52 52 54 51 51 51 51 51 51 50 49 49 48 47 47 46 47 46 46 46 45 44 44 45 44 44 43 44 43 43 44 44 44 43 41 40 40 40 34 34 31 33 37 38 36 37 31 35
63 63 63 62 62 62 61 60 59 58 57 56 56 54 52 51 51 51 50 50 50 50 50 50 50 49 48 47 47 46 46 45 45 44 45 44 44 44 43 42 42 42 42 42 42 43 43 43 43 42 42 40 39 39 34 35 34 38 40 39 38 38 36
63 63 62 62 62 61 61 60 59 57 57 56 55 53 51 50 50 49 49 49 49 49 49 49 49 48 47 47 46 45 45 45 44 44 44 44 44 43 41 41 41 41 42 41 41 41 42 42 42 42 41 40 39 39 39 37 36 37 41 42 39 37 38
63 63 62 62 62 61 60 59 58 58 56 55 54 52 51 50 49 49 48 49 48 49 48 48 48 47 47 46 46 45 44 44 43 43 44 43 42 41 41 40 39 40 41 40 41 41 41 40 41 42 41 40 39 39 38 38 37 37 39 40 42 39 40
63 62 62 62 61 61 60 59 58 57 56 55 53 51 50 49 49 48 48 48 48 48 48 48 47 47 46 45 45 45 44 43 43 43 43 41 41 41 41 39 39 40 40 40 40 39 39 39 39 39 39 39 39 38 40 39 38 37 37 38 37 37 40
62 62 62 61 61 60 60 59 58 57 56 54 53 51 50 49 48 47 47 47 47 47 47 47 47 46 46 45 44 44 44 43 43 43 42 41 40 40 40 41 39 40 41 40 40 40 41 40 40 39 40 40 40 40 39 38 37 37 36 36 39 36 40
62 62 62 61 61 60 59 58 57 57 55 53 52 51 49 48 47 47 47 47 46 47 47 47 46 46 45 44 44 43 43 43 43 42 41 40 40 40 40 39 40 41 41 39 40 40 41 41 41 41 40 41 40 40 39 39 37 38 38 35 36 34 37
62 62 61 61 61 60 59 58 57 56 55 53 52 50 49 48 47 47 47 46 46 46 46 46 45 45 45 45 44 43 43 42 43 42 41 41 43 40 41 39 40 40 40 39 40 39 40 40 39 40 39 39 39 40 39 39 38 37 36 35 36 38 39
62 62 61 61 61 60 59 58 57 56 54 53 51 50 49 48 47 46 46 46 46 46 46 45 45 45 44 44 44 44 43 43 42 41 41 42 42 41 41 40 41 40 39 39 39 40 40 39 39 39 39 38 37 37 38 37 38 37 36 36 37 35 38
62 62 61 61 61 60 59 58 57 56 54 53 51 50 49 48 48 46 46 46 45 45 45 45 45 44 44 43 43 43 43 42 42 42 41 42 41 41 41 41 41 40 40 40 39 39 40 39 39 38 39 38 36 38 37 38 37 36 36 36 36 37 37
62 62 62 61 61 60 59 58 57 56 54 52 51 50 49 48 48 47 46 45 46 46 45 44 44 44 43 43 43 42 43 43 42 42 42 42 42 41 41 41 41 40 40 40 40 39 39 38 38 38 39 38 37 37 37 38 37 36 36 36 37 36 38
62 62 61 61 60 60 59 58 57 55 54 53 52 50 49 48 47 46 46 46 45 45 45 44 44 43 43 43 43 42 42 42 42 42 42 41 41 42 42 42 41 41 44 43 42 42 40 41 39 38 38 37 37 37 37 37 37 36 36 35 34 36 36
62 62 61 61 60 59 58 57 56 55 54 53 51 50 49 48 47 46 45 45 45 45 45 44 46 45 44 43 42 42 42 42 42 42 42 41 41 41 41 42 44 46 46 46 44 42 42 42 43 40 37 37 37 36 36 36 35 35 35 33 32 33 31
62 61 61 60 60 59 58 57 56 54 54 52 51 50 48 47 46 46 45 45 44 45 45 44 44 41 41 43 43 42 42 42 42 42 42 41 40 40 40 42 45 49 48 47 44 41 41 41 40 40 40 39 37 35 34 34 33 34 33 31 33 32 32
62 61 61 60 59 58 57 56 55 54 53 52 51 49 48 47 47 46 45 44 45 45 44 44 41 40 40 40 43 43 42 42 42 42 42 41 41 42 42 43 46 48 46 45 44 42 42 41 39 39 38 37 36 35 35 32 34 33 33 31 33 33 34
62 61 61 60 59 58 57 56 54 53 52 51 50 49 48 47 46 46 45 44 44 44 44 42 40 40 40 40 40 42 42 43 44 43 42 42 42 42 42 43 45 45 45 47 46 40 40 41 40 40 39 38 38 36 34 37 37 36 35 35 34 33 34
61 61 60 59 58 57 56 55 54 53 52 51 50 49 48 47 46 45 45 44 44 44 44 42 40 40 39 39 39 40 42 43 44 42 42 41 41 41 43 44 43 42 42 45 42 37 37 38 39 40 39 37 38 40 37 37 36 37 37 37 36 35 36
61 61 60 59 58 57 56 55 54 53 52 51 49 48 47 46 46 45 45 44 44 44 44 41 39 39 39 39 38 40 43 43 43 42 42 42 41 41 42 44 43 42 40 40 39 34 34 35 36 36 34 32 33 34 37 38 38 38 38 38 37 38 39
61 60 60 59 58 57 56 55 54 53 52 51 50 49 47 47 45 45 45 44 44 43 44 39 39 39 38 38 38 42 43 43 43 42 42 41 41 43 43 43 43 41 38 37 40 35 35 34 32 30 30 31 33 39 40 42 39 38 39 39 38 37 38
60 60 59 58 58 57 56 55 54 53 51 51 50 49 47 46 45 45 44 44 43 43 43 40 38 38 38 38 39 42 43 43 43 42 42 42 41 42 42 41 40 38 35 34 37 33 33 33 29 29 29 31 37 40 40 38 38 38 38 36 35 35 35
60 59 59 58 57 57 56 55 54 52 51 50 49 48 47 48 46 44 44 43 43 43 43 41 38 38 38 38 40 42 43 43 42 42 42 41 41 40 40 43 41 36 34 34 36 33 33 34 29 30 31 34 37 38 38 37 39 39 38 38 36 36 36
60 59 59 58 57 57 56 55 54 52 52 51 50 49 47 47 44 44 43 43 46 43 42 41 38 38 38 38 40 42 42 42 41 41 41 40 40 38 37 43 43 38 35 35 36 33 33 33 30 33 35 37 37 37 38 35 35 35 35 34 35 37 37
60 59 59 58 57 57 56 55 53 52 51 51 50 49 48 48 45 44 43 43 44 43 42 42 40 38 38 38 39 42 42 41 40 40 41 40 39 38 37 37 42 37 34 33 35 34 34 34 33 37 38 38 38 37 39 35 35 35 35 36 36 38 38
60 59 59 58 58 57 56 55 53 52 50 49 49 48 47 47 46 45 43 43 43 43 43 43 42 37 38 38 39 40 41 41 42 41 41 41 39 38 37 36 36 39 35 34 35 37 35 36 37 39 38 38 38 39 38 35 38 39 36 38 39 39 37
60 59 59 58 57 56 55 53 52 51 51 49 47 47 47 46 45 44 44 45 44 44 46 44 43 38 37 38 38 39 43 42 41 41 41 40 40 39 38 38 36 37 37 35 35 36 37 37 37 41 38 35 35 35 37 38 38 39 36 37 34 33 33
59 59 58 57 56 55 53 51 51 51 50 48 47 47 47 45 44 43 43 44 44 44 44 44 41 40 38 38 38 38 39 39 38 42 40 39 39 39 39 39 39 38 37 36 35 36 36 37 37 39 35 34 34 34 37 37 36 36 34 33 33 31 31
59 58 58 57 55 54 52 51 50 50 50 49 48 47 46 45 44 43 43 43 43 43 44 46 42 40 39 37 37 38 37 37 38 40 40 39 40 39 39 39 38 36 37 36 35 35 35 36 37 36 35 34 34 35 39 36 34 34 33 31 30 30 28